TimeEST,TemperatureF,Dew PointF,Humidity,Sea Level PressureIn,VisibilityMPH,Wind Direction,Wind SpeedMPH,Gust SpeedMPH,PrecipitationIn,Events,Conditions,WindDirDegrees,DateUTC
12:53 AM,72.0,68.0,87,30.04,10.0,North,10.4,-,N/A,,Clear,10,2013-11-24 05:53:00
1:53 AM,72.0,68.0,87,30.04,10.0,NNE,10.4,-,N/A,,Clear,30,2013-11-24 06:53:00
2:53 AM,71.1,66.9,87,30.04,10.0,NNE,11.5,-,N/A,,Clear,30,2013-11-24 07:53:00
3:53 AM,71.1,66.9,87,30.04,10.0,NNE,12.7,-,N/A,,Clear,30,2013-11-24 08:53:00
4:53 AM,70.0,66.0,87,30.04,10.0,North,8.1,-,N/A,,Clear,10,2013-11-24 09:53:00
5:53 AM,69.1,66.0,90,30.06,10.0,North,12.7,-,N/A,,Clear,10,2013-11-24 10:53:00
6:11 AM,69.1,66.0,90,30.07,10.0,North,15.0,-,N/A,,Mostly Cloudy,10,2013-11-24 11:11:00
6:53 AM,69.1,66.0,90,30.08,10.0,NNE,11.5,-,N/A,,Overcast,20,2013-11-24 11:53:00
7:53 AM,69.1,64.9,87,30.10,10.0,NE,13.8,-,N/A,,Mostly Cloudy,40,2013-11-24 12:53:00
8:26 AM,69.1,64.0,84,30.11,10.0,NE,16.1,-,N/A,,Mostly Cloudy,40,2013-11-24 13:26:00
8:53 AM,68.0,63.0,84,30.12,10.0,NE,16.1,-,N/A,,Overcast,40,2013-11-24 13:53:00
9:53 AM,68.0,63.0,84,30.14,10.0,ENE,17.3,-,N/A,,Overcast,60,2013-11-24 14:53:00
10:25 AM,69.1,62.1,78,30.15,10.0,ENE,18.4,-,N/A,,Overcast,70,2013-11-24 15:25:00
10:53 AM,68.0,62.1,81,30.15,10.0,NE,13.8,-,N/A,,Overcast,50,2013-11-24 15:53:00
11:53 AM,70.0,62.1,76,30.14,10.0,ENE,17.3,-,N/A,,Overcast,70,2013-11-24 16:53:00
12:53 PM,70.0,61.0,73,30.12,10.0,NE,15.0,-,N/A,,Overcast,50,2013-11-24 17:53:00
1:53 PM,71.1,61.0,70,30.12,10.0,NE,19.6,-,N/A,,Overcast,50,2013-11-24 18:53:00
2:53 PM,70.0,61.0,73,30.12,10.0,ENE,21.9,-,N/A,,Overcast,60,2013-11-24 19:53:00
3:02 PM,70.0,62.1,76,30.13,10.0,ENE,26.5,-,N/A,,Overcast,70,2013-11-24 20:02:00
3:15 PM,70.0,61.0,73,30.13,10.0,ENE,25.3,-,N/A,,Overcast,70,2013-11-24 20:15:00
3:51 PM,69.8,60.8,73,30.14,10.0,ENE,24.2,-,N/A,,Overcast,70,2013-11-24 20:51:00
3:53 PM,70.0,60.1,71,30.14,10.0,ENE,23.0,-,N/A,,Overcast,70,2013-11-24 20:53:00
4:40 PM,68.0,60.1,76,30.16,10.0,ENE,23.0,-,N/A,,Overcast,70,2013-11-24 21:40:00
4:53 PM,68.0,59.0,73,30.16,10.0,ENE,26.5,-,N/A,,Overcast,60,2013-11-24 21:53:00
5:53 PM,66.0,57.9,75,30.18,10.0,ENE,24.2,-,N/A,,Overcast,70,2013-11-24 22:53:00
6:40 PM,64.9,57.0,75,30.19,10.0,ENE,24.2,-,N/A,,Scattered Clouds,60,2013-11-24 23:40:00
6:53 PM,64.9,57.0,75,30.19,10.0,ENE,20.7,-,N/A,,Mostly Cloudy,60,2013-11-24 23:53:00
7:25 PM,64.9,55.9,73,30.20,10.0,ENE,23.0,-,N/A,,Scattered Clouds,60,2013-11-25 00:25:00
7:53 PM,64.0,55.9,75,30.22,10.0,ENE,26.5,-,N/A,,Clear,60,2013-11-25 00:53:00
8:53 PM,64.0,55.9,75,30.22,10.0,ENE,23.0,-,N/A,,Scattered Clouds,60,2013-11-25 01:53:00
9:53 PM,63.0,55.0,75,30.22,10.0,ENE,21.9,-,N/A,,Clear,60,2013-11-25 02:53:00
10:53 PM,63.0,55.0,75,30.22,10.0,ENE,20.7,29.9,N/A,,Partly Cloudy,60,2013-11-25 03:53:00
11:53 PM,63.0,55.0,75,30.21,10.0,ENE,19.6,-,N/A,,Clear,70,2013-11-25 04:53:00